Location: Cambridge
(43.3830°N, 80.3170°W)
Time: 19:18:39
(UTC-05:00)

Envisat - Pass Details

Date: 23 October 2019
Orbit: 764 x 766 km, 98.1° (Epoch: 20 November)

Event Time Altitude Azimuth Distance (km) Brightness Sun altitude
Rises 19:57:35 0° 185° (S) 3,218 6.3 -17.3°
Reaches altitude 10° 20:00:00 10° 192° (SSW) 2,296 5.6 -17.8°
Maximum altitude 20:04:46 41° 262° (W) 1,100 4.3 -18.6°
Drops below altitude 10° 20:09:35 10° 333° (NNW) 2,312 5.9 -19.5°
Sets 20:12:01 0° 340° (NNW) 3,242 6.5 -20.0°
